EW7119 Weather Reports


time (UTC)temp
C
wind
direction
speed
KPH
gust
KPH
rain 1hr
cm
rain 24hr
cm
rain mn
cm
humidity
%
barometer
mb
20260901224553 21 117 0.0 0.0 0.00 0.03 0.00 29 1005.7
20260901223057 21 192 0.0 0.0 0.00 0.03 0.00 28 1005.9
20260901221600 21 117 0.0 0.0 0.00 0.03 0.00 30 1005.7
20260901220127 20 254 0.0 0.0 0.00 0.03 0.00 32 1005.9
20260901214522 20 244 0.0 0.0 0.00 0.03 0.00 28 1006.1
20260901213127 20 185 0.0 1.6 0.00 0.03 0.00 30 1006.2
20260901211508 21 196 0.0 6.4 0.00 0.03 0.00 27 1006.4
20260901210029 21 151 6.4 25.7 0.00 0.03 0.00 29 1006.6
20260901204506 20 175 0.0 3.2 0.00 0.03 0.00 35 1006.6
20260901203126 19 263 0.0 0.0 0.00 0.03 0.00 36 1006.7
20260901201629 19 273 0.0 0.0 0.00 0.03 0.00 37 1006.7
20260901200121 20 190 0.0 17.7 0.00 0.03 0.00 40 1006.8
20260901194532 20 217 0.0 11.3 0.00 0.03 0.00 37 1006.7
20260901193019 19 232 1.6 19.3 0.00 0.03 0.00 37 1006.8
20260901191532 17 346 0.0 17.7 0.00 0.03 0.00 44 1006.7
20260901190043 17 155 0.0 0.0 0.00 0.03 0.00 49 1007.1
20260901184524 17 120 0.0 0.0 0.00 0.03 0.00 49 1007.3
20260901183101 17 271 0.0 0.0 0.00 0.03 0.00 49 1007.3
20260901181552 18 258 0.0 0.0 0.00 0.03 0.00 47 1007.5
20260901180100 17 188 0.0 0.0 0.00 0.03 0.00 51 1007.6
20260901174510 17 355 0.0 0.0 0.00 0.03 0.00 47 1007.7
20260901173038 17 345 0.0 0.0 0.00 0.03 0.00 50 1007.9
20260901171542 17 175 0.0 14.5 0.00 0.03 0.00 52 1008.1
20260901170051 16 263 0.0 12.9 0.00 0.03 0.00 55 1008.1
20260901164600 16 173 0.0 1.6 0.00 0.03 0.00 59 1008.0
20260901163018 15 238 0.0 6.4 0.00 0.03 0.00 61 1008.0
20260901161543 14 136 0.0 0.0 0.00 0.03 0.00 69 1008.0
20260901154618 12 161 0.0 0.0 0.00 0.03 0.00 71 1007.9
20260901153129 12 161 0.0 0.0 0.00 0.03 0.00 73 1008.1
20260901151510 12 161 0.0 0.0 0.00 0.03 0.00 75 1008.1
20260901150030 12 176 0.0 0.0 0.00 0.03 0.00 74 1008.2
20260901144538 12 135 0.0 0.0 0.00 0.03 0.00 73 1008.2
20260901143044 11 251 0.0 0.0 0.00 0.03 0.00 74 1008.3
20260901141601 11 192 0.0 0.0 0.00 0.03 0.00 74 1008.1
20260901134606 11 195 0.0 0.0 0.00 0.03 0.00 75 1008.0
20260901133002 11 149 0.0 0.0 0.00 0.03 0.00 77 1007.9
20260901131518 11 149 0.0 0.0 0.00 0.03 0.00 78 1007.7
20260901130041 11 138 0.0 0.0 0.00 0.03 0.00 79 1007.5
20260901124548 11 175 0.0 0.0 0.00 0.03 0.00 79 1007.3
20260901123057 11 150 0.0 0.0 0.00 0.03 0.00 79 1007.0
20260901121501 11 155 0.0 0.0 0.00 0.03 0.00 77 1006.9
20260901120105 11 155 0.0 8.0 0.00 0.03 0.00 77 1006.6
20260901114533 11 144 0.0 0.0 0.00 0.03 0.00 78 1006.5
20260901113051 11 162 0.0 0.0 0.00 0.03 0.00 80 1006.6
20260901111539 11 162 0.0 0.0 0.00 0.03 0.00 79 1006.5
20260901110049 11 162 0.0 0.0 0.00 0.03 0.00 79 1006.7
20260901104541 11 165 0.0 0.0 0.00 0.03 0.00 80 1006.7
20260901103058 11 171 0.0 0.0 0.00 0.03 0.00 80 1006.8
20260901101543 11 171 0.0 0.0 0.00 0.03 0.00 79 1006.9
20260901100001 11 171 0.0 0.0 0.00 0.03 0.00 78 1007.0
20260901094515 11 171 0.0 0.0 0.00 0.03 0.00 78 1007.2
20260901093100 11 171 0.0 0.0 0.00 0.03 0.00 78 1007.2
20260901091615 11 171 0.0 0.0 0.00 0.03 0.00 77 1007.3
20260901090124 11 170 0.0 0.0 0.00 0.03 0.00 79 1007.2
20260901084608 11 179 0.0 0.0 0.00 0.03 0.00 79 1007.4
20260901083107 11 179 0.0 0.0 0.00 0.03 0.00 79 1007.3
20260901081558 11 179 0.0 0.0 0.00 0.03 0.00 79 1007.6
20260901080107 11 179 0.0 0.0 0.00 0.03 0.00 79 1007.8
20260901074605 11 179 0.0 0.0 0.00 0.03 0.00 78 1007.8
20260901073032 12 179 0.0 0.0 0.00 0.03 0.00 76 1008.1
20260901071539 12 179 0.0 0.0 0.00 0.03 0.00 75 1008.0
20260901070050 12 181 0.0 9.7 0.00 0.03 0.00 75 1008.0
20260901064530 12 167 0.0 4.8 0.00 0.03 0.00 77 1008.2
20260901063047 11 178 0.0 0.0 0.00 0.03 0.00 78 1008.1
20260901061541 11 178 0.0 0.0 0.00 0.03 0.00 79 1008.2
20260901060052 11 178 0.0 0.0 0.00 0.03 0.00 79 1008.3
20260901054539 12 178 0.0 6.4 0.00 0.03 0.03 74 1008.4
20260901053058 12 153 1.6 6.4 0.00 0.03 0.03 73 1008.0
20260901051551 12 169 1.6 16.1 0.00 0.03 0.03 73 1008.4
20260901050052 12 155 0.0 17.7 0.00 0.03 0.03 73 1008.5
20260901044603 12 146 0.0 6.4 0.00 0.10 0.03 74 1008.3
20260901043040 11 193 3.2 12.9 0.00 0.10 0.03 77 1008.2
20260901041535 11 168 0.0 1.6 0.00 0.10 0.03 83 1008.4
20260901040046 10 150 0.0 0.0 0.00 0.10 0.03 84 1008.2
20260901034549 11 150 0.0 3.2 0.00 0.36 0.03 82 1008.2
20260901033049 11 153 1.6 8.0 0.00 0.36 0.03 82 1008.4
20260901031556 11 113 0.0 6.4 0.00 0.36 0.03 84 1008.6
20260901030059 11 120 0.0 0.0 0.00 0.36 0.03 85 1009.0
20260901024611 11 120 0.0 4.8 0.00 0.36 0.03 85 1008.7
20260901023003 11 128 0.0 6.4 0.00 0.36 0.03 86 1008.8
20260901021513 11 88 0.0 0.0 0.03 0.36 0.03 86 1008.6
20260901020101 11 101 0.0 0.0 0.03 0.36 0.03 86 1009.0
20260901014609 11 144 0.0 0.0 0.03 0.36 0.03 84 1008.7
20260901013027 12 144 0.0 0.0 0.00 0.33 0.03 81 1009.5
20260901011511 14 295 0.0 14.5 0.00 0.33 0.00 67 1009.2
20260901010003 16 221 0.0 0.0 0.00 0.33 0.00 55 1008.2
20260901004516 17 148 0.0 9.7 0.00 0.33 0.00 53 1007.6
20260901003125 17 148 0.0 14.5 0.00 0.33 0.00 50 1007.3
20260901001605 17 138 0.0 0.0 0.00 0.33 0.00 50 1007.3
20260901000003 17 114 0.0 0.0 0.00 0.33 0.00 49 1007.4
20260831234508 17 152 0.0 0.0 0.00 0.33 0.00 47 1007.7
20260831233147 17 113 0.0 9.7 0.00 0.33 0.00 45 1007.7
20260831231526 18 153 0.0 0.0 0.00 0.33 0.00 45 1007.7
20260831230002 18 140 0.0 0.0 0.00 0.33 0.00 45 1007.8